User: anonymous   Login
Location: Unspecified
(0.0000°N, 0.0000°E)
Time: 09:20:35
(UTC+00:00)
Language:

APRIZESAT 9 - Orbit

View from above orbital plane
View from above orbital plane
View from above satellite
View from above satellite

Ground track
Ground track

The orbit data is extracted from the following two-line orbital elements,

1 40018U 14033J   17086.87058843 +.00000072 +00000-0 +19872-4 0  9999
2 40018 097.8568 327.3108 0070851 209.4623 150.2583 14.69786403148532
Epoch (UTC): 27 March 2017 20:53:38
Eccentricity: 0.0070851
inclination: 97.8568°
perigee height: 612 km
apogee height: 711 km
right ascension of ascending node: 327.3108°
argument of perigee: 209.4623°
revolutions per day: 14.69786403
mean anomaly at epoch: 150.2583°
orbit number at epoch: 14853

The dashed part of the orbit path shows where the satellite is in the earth's shadow,  

DLR